Location: Monrovia
(34.7865°N, 86.7139°W)
Time: 22:01:55
(UTC+00:00)

Cosmos 1733 Rocket - Pass Details

Date: 14 July 2020
Orbit: 604 x 627 km, 82.5° (Epoch: 08 August)

Event Time Altitude Azimuth Distance (km) Brightness Sun altitude
Exits shadow 07:57:57 62° 55° (NE) 682 3.4 -26.3°
Drops below altitude 10° 08:01:47 10° 12° (NNE) 1,955 6.5 -25.9°
Sets 08:04:00 0° 10° (N) 2,863 7.5 -25.6°
